Marysville, CA

12:35 AM PST on November 21, 2019 (GMT -0800)
Yuba County

Weather History for KMYV - October, 2019

Change the Weather History Date:

Friday, October 18, 2019

  Actual Average Record
Temperature  
Mean Temperature 58 °F -  
Max Temperature 73 °F 78 °F 96 °F (1961)
Min Temperature 44 °F 49 °F 40 °F (1966)
Degree Days  
Heating Degree Days 6    
Growing Degree Days 8 (Base 50)    
Moisture  
Dew Point 42 °F    
Average Humidity 56    
Maximum Humidity 79    
Minimum Humidity 33    
Precipitation  
Precipitation 0.00 in - - ()
Sea Level Pressure  
Sea Level Pressure 30.03 in    
Wind  
Wind Speed 4 mph ()    
Max Wind Speed 9 mph    
Max Gust Speed -    
Visibility 10.0 miles    
Events      
Averages and records for this station are not official NWS values.
T = Trace of Precipitation, MM = Missing Value Source: Averaged Metar Reports

Daily Weather History Graph

Daily Weather History Graph

Search for Another Location

Airport or City:

Astronomy

Oct. 18, 2019 Rise Set
Actual Time 7:18 AM PDT 6:23 PM PDT
Civil Twilight 6:51 AM PDT 6:50 PM PDT
Nautical Twilight 6:20 AM PDT 7:21 PM PDT
Astronomical Twilight 5:49 AM PDT 7:52 PM PDT
Moon 9:46 PM PDT (10/18) 11:55 AM PDT (10/18)
Length of Visible Light 11h 58m
Length of Day
11h 04m
Waning Gibbous, 78% of the Moon is Illuminated
Oct 18
Waning Gibbous
Oct 21
Last Quarter
Oct 27
New
Nov 4
First Quarter
Nov 12
Full

Hourly Weather History & Observations

Time (PDT) Temp. Windchill Dew Point Humidity Pressure Visibility Wind Dir Wind Speed Gust Speed Precip Events Conditions
12:53 AM 50.0 °F - 37.9 °F 63% 30.01 in 10.0 mi SE 3.5 mph - N/A   Clear
1:53 AM 53.1 °F - 39.9 °F 61% 30.01 in 10.0 mi North 8.1 mph - N/A   Clear
2:53 AM 50.0 °F - 37.9 °F 63% 30.04 in 10.0 mi Calm Calm - N/A   Clear
3:53 AM 46.0 °F 44.8 °F 37.9 °F 73% 30.03 in 10.0 mi ENE 3.5 mph - N/A   Clear
4:53 AM 50.0 °F - 39.9 °F 68% 30.02 in 10.0 mi NE 4.6 mph - N/A   Clear
5:53 AM 44.1 °F 42.5 °F 37.9 °F 79% 30.03 in 10.0 mi SW 3.5 mph - N/A   Clear
6:53 AM 45.0 °F - 37.9 °F 76% 30.04 in 10.0 mi Calm Calm - N/A   Clear
7:53 AM 48.9 °F - 41.0 °F 74% 30.05 in 10.0 mi East 3.5 mph - N/A   Clear
8:53 AM 51.1 °F - 41.0 °F 68% 30.06 in 10.0 mi ESE 4.6 mph - N/A   Clear
9:53 AM 57.9 °F - 41.0 °F 53% 30.08 in 10.0 mi SE 5.8 mph - N/A   Clear
10:53 AM 61.0 °F - 41.0 °F 48% 30.08 in 10.0 mi South 3.5 mph - N/A   Clear
11:53 AM 64.9 °F - 41.0 °F 42% 30.07 in 10.0 mi Variable 3.5 mph - N/A   Clear
12:53 PM 68.0 °F - 39.9 °F 36% 30.05 in 10.0 mi Calm Calm - N/A   Clear
1:53 PM 72.0 °F - 42.1 °F 34% 30.03 in 10.0 mi West 8.1 mph - N/A   Clear
2:53 PM 73.0 °F - 42.1 °F 33% 30.02 in 10.0 mi WSW 6.9 mph - N/A   Clear
3:53 PM 73.0 °F - 42.1 °F 33% 30.01 in 10.0 mi SW 6.9 mph - N/A   Clear
4:53 PM 73.0 °F - 44.1 °F 35% 30.00 in 10.0 mi SSE 6.9 mph - N/A   Clear
5:53 PM 70.0 °F - 45.0 °F 41% 30.00 in 10.0 mi SE 4.6 mph - N/A   Clear
6:53 PM 63.0 °F - 46.0 °F 54% 30.00 in 10.0 mi East 3.5 mph - N/A   Clear
7:53 PM 63.0 °F - 46.0 °F 54% 30.01 in 10.0 mi SSE 8.1 mph - N/A   Clear
8:53 PM 59.0 °F - 46.0 °F 62% 30.03 in 10.0 mi SSE 5.8 mph - N/A   Clear
9:53 PM 55.9 °F - 45.0 °F 67% 30.04 in 10.0 mi ESE 6.9 mph - N/A   Clear
10:53 PM 57.0 °F - 45.0 °F 64% 30.05 in 10.0 mi ESE 9.2 mph - N/A   Clear
11:53 PM 55.0 °F - 45.0 °F 69% 30.05 in 10.0 mi SE 6.9 mph - N/A   Clear